FW6209 Weather Reports


Display with metric or nautical units.
time (UTC)temp
F
wind
direction
speed
MPH
gust
MPH
rain 1hr
in
rain 24hr
in
rain mn
in
humidity
%
barometer
mb
20260902232600 78 190 1.0 9.0 0.00 0.00 0.00 51 1013.7
20260902232100 78 188 1.0 10.0 0.00 0.00 0.00 52 1013.8
20260902232047 78 233 2.0 10.0 0.00 0.00 0.00 52 1014.0
20260902231100 78 223 2.0 12.0 0.00 0.00 0.00 52 1014.0
20260902230600 78 222 2.0 12.0 0.00 0.00 0.00 53 1014.0
20260902230058 77 216 5.0 12.0 0.00 0.00 0.00 53 1013.8
20260902225818 78 246 5.0 12.0 0.00 0.00 0.00 52 1013.9
20260902225056 79 234 2.0 11.0 0.00 0.00 0.00 51 1014.0
20260902224556 79 211 2.0 11.0 0.00 0.00 0.00 51 1014.1
20260902224055 79 203 3.0 11.0 0.00 0.00 0.00 50 1014.1
20260902223823 79 203 3.0 11.0 0.00 0.00 0.00 50 1014.1
20260902223056 79 202 2.0 12.0 0.00 0.00 0.00 49 1014.1
20260902222556 79 214 4.0 12.0 0.00 0.00 0.00 49 1014.1
20260902222057 80 236 3.0 12.0 0.00 0.00 0.00 49 1014.1
20260902221552 80 217 3.0 11.0 0.00 0.00 0.00 48 1014.1
20260902221314 80 196 3.0 11.0 0.00 0.00 0.00 49 1014.2
20260902221057 80 196 3.0 11.0 0.00 0.00 0.00 49 1014.2
20260902220811 80 252 3.0 9.0 0.00 0.00 0.00 48 1014.3
20260902220315 80 245 4.0 10.0 0.00 0.00 0.00 48 1014.3
20260902215551 80 235 3.0 10.0 0.00 0.00 0.00 47 1014.3
20260902215051 81 179 3.0 8.0 0.00 0.00 0.00 48 1014.3
20260902214551 80 183 2.0 10.0 0.00 0.00 0.00 48 1014.4
20260902214307 80 241 3.0 10.0 0.00 0.00 0.00 50 1014.4
20260902214036 80 261 3.0 11.0 0.00 0.00 0.00 48 1014.4
20260902213047 80 240 3.0 11.0 0.00 0.00 0.00 48 1014.5
20260902212547 81 262 4.0 10.0 0.00 0.00 0.00 48 1014.5
20260902212047 81 243 4.0 11.0 0.00 0.00 0.00 47 1014.5
20260902211549 81 229 5.0 11.0 0.00 0.00 0.00 47 1014.6
20260902211308 82 230 3.0 11.0 0.00 0.00 0.00 47 1014.6
20260902210550 82 253 2.0 11.0 0.00 0.00 0.00 47 1014.6
20260902210047 82 180 1.0 6.0 0.00 0.00 0.00 43 1014.6
20260902205546 82 253 1.0 6.0 0.00 0.00 0.00 47 1014.5
20260902205313 82 136 1.0 5.0 0.00 0.00 0.00 46 1014.5
20260902204542 82 229 1.0 9.0 0.00 0.00 0.00 45 1014.5
20260902204044 82 202 1.0 9.0 0.00 0.00 0.00 47 1014.5
20260902203545 82 221 1.0 9.0 0.00 0.00 0.00 47 1014.6
20260902203045 82 155 2.0 9.0 0.00 0.00 0.00 49 1014.6
20260902202805 82 240 2.0 9.0 0.00 0.00 0.00 49 1014.7
20260902202047 81 202 2.0 9.0 0.00 0.00 0.00 50 1014.7
20260902201545 82 265 2.0 10.0 0.00 0.00 0.00 51 1014.6
20260902201047 81 244 1.0 10.0 0.00 0.00 0.00 49 1014.7
20260902200548 82 173 2.0 11.0 0.00 0.00 0.00 48 1014.8
20260902200041 82 263 2.0 11.0 0.00 0.00 0.00 46 1014.8
20260902195802 83 237 1.0 9.0 0.00 0.00 0.00 46 1014.8
20260902195044 83 221 2.0 9.0 0.00 0.00 0.00 45 1014.9
20260902194539 83 263 2.0 11.0 0.00 0.00 0.00 45 1015.0
20260902194040 83 225 2.0 11.0 0.00 0.00 0.00 45 1015.0
20260902193540 82 194 2.0 9.0 0.00 0.00 0.00 45 1015.2
20260902193040 82 168 3.0 9.0 0.00 0.00 0.00 45 1015.2
20260902192538 82 256 2.0 12.0 0.00 0.00 0.00 44 1015.3
20260902192300 82 249 1.0 12.0 0.00 0.00 0.00 42 1015.3
20260902191539 82 255 1.0 7.0 0.00 0.00 0.00 42 1015.2
20260902191039 82 248 1.0 7.0 0.00 0.00 0.00 43 1015.3
20260902190758 82 225 1.0 7.0 0.00 0.00 0.00 43 1015.2
20260902190055 81 264 1.0 7.0 0.00 0.00 0.00 41 1015.2
20260902185536 81 167 1.0 9.0 0.00 0.00 0.00 41 1015.3
20260902185235 81 121 1.0 9.0 0.00 0.00 0.00 32 1015.5
20260902185125 81 182 1.0 9.0 0.00 0.00 0.00 32 1015.4
20260902184037 81 123 1.0 9.0 0.00 0.00 0.00 23 1015.5
20260902184021 81 217 1.0 9.0 0.00 0.00 0.00 29 1015.6
20260902183519 81 215 1.0 9.0 0.00 0.00 0.00 32 1015.6
20260902182536 81 266 0.0 9.0 0.00 0.00 0.00 31 1015.9
20260902182034 80 96 0.0 6.0 0.00 0.00 0.00 32 1015.9
20260902181535 80 234 0.0 6.0 0.00 0.00 0.00 34 1015.9
20260902181031 80 244 0.0 6.0 0.00 0.00 0.00 33 1016.0
20260902180531 80 151 0.0 4.0 0.00 0.00 0.00 34 1016.0
20260902180230 79 267 0.0 4.0 0.00 0.00 0.00 38 1016.0
20260902180117 79 198 0.0 4.0 0.00 0.00 0.00 37 1016.0
20260902175510 79 84 0.0 3.0 0.00 0.00 0.00 37 1015.9
20260902174506 78 92 0.0 3.0 0.00 0.00 0.00 38 1015.9
20260902174003 78 142 0.0 4.0 0.00 0.00 0.00 42 1015.8
20260902173721 77 166 0.0 4.0 0.00 0.00 0.00 45 1015.9
20260902172950 77 183 0.0 3.0 0.00 0.00 0.00 45 1015.9
20260902172443 76 136 0.0 4.0 0.00 0.00 0.00 48 1015.9
20260902171937 76 125 0.0 4.0 0.00 0.00 0.00 46 1016.0
20260902171432 76 113 0.0 5.0 0.00 0.00 0.00 49 1015.9
20260902171147 76 146 0.0 5.0 0.00 0.00 0.00 56 1015.9
20260902170956 76 146 0.0 5.0 0.00 0.00 0.00 56 1015.9
20260902170638 75 169 1.0 5.0 0.00 0.00 0.00 60 1015.8
20260902170143 75 171 1.0 5.0 0.00 0.00 0.00 63 1015.6
20260902165406 75 248 0.0 5.0 0.00 0.00 0.00 62 1015.8
20260902164901 74 181 0.0 4.0 0.00 0.00 0.00 59 1015.9
20260902164356 74 70 0.0 0.0 0.00 0.00 0.00 61 1015.8
20260902163849 73 166 0.0 0.0 0.00 0.00 0.00 65 1015.6
20260902163416 72 339 0.0 0.0 0.00 0.00 0.00 68 1015.6
20260902162837 71 92 0.0 3.0 0.00 0.00 0.00 69 1015.6
20260902162332 71 73 0.0 3.0 0.00 0.00 0.00 69 1015.6
20260902161825 70 194 0.0 3.0 0.00 0.00 0.00 73 1015.6
20260902161319 69 123 0.0 3.0 0.00 0.00 0.00 74 1015.6
20260902160818 69 94 0.0 2.0 0.00 0.00 0.00 75 1015.6
20260902160307 68 72 0.0 2.0 0.00 0.00 0.00 77 1015.9
20260902160248 68 53 0.0 2.0 0.00 0.00 0.00 79 1015.8
20260902155514 67 79 0.0 0.0 0.00 0.00 0.00 81 1015.6
20260902154749 66 5 0.0 0.0 0.00 0.00 0.00 83 1015.8
20260902154243 65 101 0.0 0.0 0.00 0.00 0.00 84 1015.8
20260902153737 65 91 0.0 0.0 0.00 0.00 0.00 85 1015.6
20260902153231 64 88 0.0 0.0 0.00 0.00 0.00 87 1015.6
20260902152725 64 92 0.0 0.0 0.00 0.00 0.00 91 1015.8
20260902152219 63 186 0.0 0.0 0.00 0.00 0.00 92 1015.8
20260902151714 63 113 0.0 0.0 0.00 0.00 0.00 93 1015.6
20260902151412 62 218 0.0 0.0 0.00 0.00 0.00 94 1015.6
20260902151258 62 177 0.0 0.0 0.00 0.00 0.00 94 1015.6
20260902150646 62 180 0.0 0.0 0.00 0.00 0.00 95 1015.6
20260902145650 61 237 0.0 0.0 0.00 0.00 0.00 94 1015.6
20260902145144 61 244 0.0 0.0 0.00 0.00 0.00 94 1015.8
20260902144637 62 232 0.0 1.0 0.00 0.00 0.00 95 1015.6
20260902144135 62 248 0.0 1.0 0.00 0.00 0.00 95 1015.6
20260902143628 62 225 0.0 4.0 0.00 0.00 0.00 96 1015.8
20260902143119 62 240 0.0 4.0 0.00 0.00 0.00 96 1015.6
20260902142614 61 240 0.0 0.0 0.00 0.00 0.00 97 1015.6
20260902142325 61 248 0.0 0.0 0.00 0.00 0.00 97 1015.5
20260902141601 60 213 0.0 0.0 0.00 0.00 0.00 97 1015.4
20260902141432 60 240 0.0 0.0 0.00 0.00 0.00 96 1015.2
20260902141425 59 240 0.0 0.0 0.00 0.00 0.00 96 1015.0
20260902141420 59 240 0.0 0.0 0.00 0.00 0.00 95 1015.1
20260902141329 60 240 0.0 0.0 0.00 0.00 0.00 96 1015.3
20260902141211 60 240 0.0 0.0 0.00 0.00 0.00 96 1015.2
20260902141043 59 240 0.0 0.0 0.00 0.00 0.00 96 1015.2
20260902134527 59 171 0.0 0.0 0.00 0.00 0.00 96 1015.0
20260902134019 59 171 0.0 0.0 0.00 0.00 0.00 96 1014.9
20260902133513 59 171 0.0 0.0 0.00 0.00 0.00 96 1014.9
20260902133008 59 236 0.0 0.0 0.00 0.00 0.00 96 1015.0
20260902132503 59 249 0.0 0.0 0.00 0.00 0.00 96 1014.9
20260902131955 59 249 0.0 0.0 0.00 0.00 0.00 96 1014.9
20260902131449 59 249 0.0 0.0 0.00 0.00 0.00 95 1014.9
20260902131209 59 249 0.0 0.0 0.00 0.00 0.00 96 1014.9
20260902130437 59 249 0.0 0.0 0.00 0.00 0.00 96 1014.8
20260902125931 59 249 0.0 0.0 0.00 0.00 0.00 96 1014.7
20260902125645 59 249 0.0 0.0 0.00 0.00 0.00 96 1014.7
20260902125137 58 249 0.0 0.0 0.00 0.00 0.00 95 1014.7
20260902124637 59 249 0.0 0.0 0.00 0.00 0.00 95 1014.7
20260902123907 59 249 0.0 0.0 0.00 0.00 0.00 95 1014.7
20260902123623 59 249 0.0 0.0 0.00 0.00 0.00 95 1014.6
20260902122856 59 249 0.0 0.0 0.00 0.00 0.00 95 1014.7
20260902122350 60 249 0.0 0.0 0.00 0.00 0.00 95 1014.7
20260902121843 60 249 0.0 0.0 0.00 0.00 0.00 95 1014.8
20260902121337 60 249 0.0 0.0 0.00 0.00 0.00 95 1014.8
20260902120832 60 249 0.0 0.0 0.00 0.00 0.00 95 1014.7
20260902120325 60 249 0.0 0.0 0.00 0.00 0.00 95 1014.6
20260902115819 60 249 0.0 0.0 0.00 0.00 0.00 95 1014.8
20260902115757 60 249 0.0 0.0 0.00 0.00 0.00 95 1014.9
20260902114807 60 249 0.0 0.0 0.00 0.00 0.00 95 1014.9
20260902114303 60 249 0.0 0.0 0.00 0.00 0.00 95 1014.9
20260902113757 60 249 0.0 0.0 0.00 0.00 0.00 95 1014.8
20260902113511 60 249 0.0 0.0 0.00 0.00 0.00 95 1014.9
20260902112743 60 249 0.0 0.0 0.00 0.00 0.00 95 1014.9
20260902112237 60 249 0.0 0.0 0.00 0.00 0.00 95 1014.9
20260902111731 60 249 0.0 0.0 0.00 0.00 0.00 95 1014.9
20260902111226 60 249 0.0 0.0 0.00 0.00 0.00 95 1014.9
20260902110719 60 249 0.0 0.0 0.00 0.00 0.00 95 1014.9
20260902110215 60 249 0.0 0.0 0.00 0.00 0.00 95 1014.9
20260902105707 60 249 0.0 0.0 0.00 0.00 0.00 95 1014.9
20260902105201 60 249 0.0 0.0 0.00 0.00 0.00 95 1014.8
20260902104918 60 249 0.0 0.0 0.00 0.00 0.00 95 1014.9
20260902104150 60 249 0.0 0.0 0.00 0.00 0.00 95 1015.0
20260902103643 60 249 0.0 0.0 0.00 0.00 0.00 95 1015.0
20260902103138 60 249 0.0 0.0 0.00 0.00 0.00 95 1015.1
20260902102854 60 249 0.0 0.0 0.00 0.00 0.00 95 1015.2
20260902102132 60 249 0.0 0.0 0.00 0.00 0.00 95 1015.3
20260902101620 60 249 0.0 0.0 0.00 0.00 0.00 95 1015.4
20260902101113 60 249 0.0 0.0 0.00 0.00 0.00 95 1015.4
20260902100607 60 249 0.0 0.0 0.00 0.00 0.00 95 1015.4
20260902100101 60 249 0.0 0.0 0.00 0.00 0.00 94 1015.4
20260902095556 60 249 0.0 0.0 0.00 0.00 0.00 94 1015.4
20260902095049 60 249 0.0 0.0 0.00 0.00 0.00 94 1015.4
20260902094544 60 249 0.0 0.0 0.00 0.00 0.00 94 1015.5
20260902094037 60 249 0.0 0.0 0.00 0.00 0.00 94 1015.5
20260902093532 60 249 0.0 0.0 0.00 0.00 0.00 95 1015.5
20260902093509 60 249 0.0 0.0 0.00 0.00 0.00 95 1015.6
20260902092519 60 249 0.0 0.0 0.00 0.00 0.00 94 1015.8
20260902092013 60 249 0.0 0.0 0.00 0.00 0.00 94 1015.6
20260902091508 60 249 0.0 0.0 0.00 0.00 0.00 94 1015.6
20260902091308 60 249 0.0 0.0 0.00 0.00 0.00 94 1015.6
20260902091223 61 249 0.0 0.0 0.00 0.00 0.00 94 1015.8
20260902090200 61 204 0.0 0.0 0.00 0.00 0.00 94 1015.6
20260902090045 61 240 0.0 0.0 0.00 0.00 0.00 94 1015.9
20260902084937 61 223 0.0 0.0 0.00 0.00 0.00 94 1015.9
20260902084431 61 232 0.0 0.0 0.00 0.00 0.00 94 1015.8
20260902083925 61 219 0.0 0.0 0.00 0.00 0.00 94 1015.6
20260902083644 60 223 0.0 0.0 0.00 0.00 0.00 94 1015.6
20260902083137 61 202 0.0 0.0 0.00 0.00 0.00 93 1015.5
20260902082641 61 193 0.0 0.0 0.00 0.00 0.00 93 1015.5
20260902081901 61 172 0.0 0.0 0.00 0.00 0.00 94 1015.4
20260902081617 61 191 0.0 0.0 0.00 0.00 0.00 93 1015.4
20260902080850 61 206 0.0 0.0 0.00 0.00 0.00 93 1015.4
20260902080606 61 225 0.0 0.0 0.00 0.00 0.00 93 1015.4
20260902075837 61 225 0.0 0.0 0.00 0.00 0.00 93 1015.4
20260902075331 61 211 0.0 0.0 0.00 0.00 0.00 92 1015.4
20260902074825 61 211 0.0 0.0 0.00 0.00 0.00 92 1015.4
20260902074319 61 211 0.0 0.0 0.00 0.00 0.00 92 1015.4
20260902073814 61 211 0.0 0.0 0.00 0.00 0.00 92 1015.3
20260902073308 61 211 0.0 0.0 0.00 0.00 0.00 92 1015.3
20260902072801 61 203 0.0 0.0 0.00 0.00 0.00 92 1015.3
20260902072520 62 196 0.0 0.0 0.00 0.00 0.00 92 1015.3
20260902071749 62 196 0.0 0.0 0.00 0.00 0.00 92 1015.2
20260902071243 62 196 0.0 0.0 0.00 0.00 0.00 92 1015.1
20260902070737 62 196 0.0 0.0 0.00 0.00 0.00 92 1015.2
20260902070231 62 196 0.0 0.0 0.00 0.00 0.00 92 1015.2
20260902065724 62 196 0.0 0.0 0.00 0.00 0.00 92 1015.0
20260902065218 62 196 0.0 0.0 0.00 0.00 0.00 92 1015.1
20260902064712 62 196 0.0 0.0 0.00 0.00 0.00 92 1015.1
20260902064430 62 196 0.0 0.0 0.00 0.00 0.00 92 1015.0
20260902063702 62 227 0.0 0.0 0.00 0.00 0.00 91 1015.0
20260902063656 62 227 0.0 0.0 0.00 0.00 0.00 90 1015.0
20260902062644 62 227 0.0 0.0 0.00 0.00 0.00 90 1015.0
20260902062409 62 227 0.0 0.0 0.00 0.00 0.00 90 1015.1
20260902061632 62 227 0.0 0.0 0.00 0.00 0.00 90 1015.1
20260902061126 62 227 0.0 0.0 0.00 0.00 0.00 90 1015.1
20260902060623 62 227 0.0 0.0 0.00 0.00 0.00 89 1015.0
20260902060114 63 227 0.0 0.0 0.00 0.00 0.00 90 1014.9
20260902055608 63 227 0.0 0.0 0.00 0.00 0.00 90 1015.0
20260902055102 63 227 0.0 0.0 0.00 0.00 0.00 90 1015.0
20260902054556 63 227 0.0 0.0 0.00 0.00 0.00 89 1015.0
20260902054050 63 227 0.0 0.0 0.00 0.00 0.00 87 1015.0
20260902053545 63 229 0.0 0.0 0.00 0.00 0.00 87 1015.0
20260902053038 63 229 0.0 0.0 0.00 0.00 0.00 87 1015.0
20260902052532 63 229 0.0 0.0 0.00 0.00 0.00 86 1015.0
20260902052251 63 229 0.0 0.0 0.00 0.00 0.00 85 1015.0
20260902051520 63 229 0.0 0.0 0.00 0.00 0.00 84 1015.1
20260902051014 64 229 0.0 0.0 0.00 0.00 0.00 84 1015.1
20260902050508 64 229 0.0 0.0 0.00 0.00 0.00 84 1015.1
20260902050004 64 229 0.0 0.0 0.00 0.00 0.00 84 1015.1
20260902045456 64 229 0.0 0.0 0.00 0.00 0.00 82 1015.0
20260902044949 64 242 0.0 0.0 0.00 0.00 0.00 79 1015.0
20260902044444 64 165 0.0 0.0 0.00 0.00 0.00 80 1014.9
20260902043939 65 176 0.0 0.0 0.00 0.00 0.00 79 1014.8
20260902043652 65 185 0.0 0.0 0.00 0.00 0.00 77 1014.8
20260902042926 65 204 0.0 0.0 0.00 0.00 0.00 76 1014.6
20260902042652 65 159 0.0 0.0 0.00 0.00 0.00 73 1014.5
20260902041914 65 177 0.0 0.0 0.00 0.00 0.00 71 1014.5
20260902041408 65 176 0.0 0.0 0.00 0.00 0.00 71 1014.5
20260902040902 65 218 0.0 0.0 0.00 0.00 0.00 72 1014.5
20260902040356 66 149 0.0 0.0 0.00 0.00 0.00 72 1014.4
20260902035851 66 149 0.0 0.0 0.00 0.00 0.00 72 1014.1
20260902035606 66 149 0.0 0.0 0.00 0.00 0.00 72 1014.0
20260902035108 66 164 0.0 0.0 0.00 0.00 0.00 72 1014.0
20260902034332 66 175 0.0 0.0 0.00 0.00 0.00 73 1013.9
20260902033826 66 175 0.0 0.0 0.00 0.00 0.00 73 1013.8
20260902033321 66 175 0.0 0.0 0.00 0.00 0.00 74 1013.8
20260902032814 66 175 0.0 0.0 0.00 0.00 0.00 73 1013.8
20260902032308 67 177 0.0 0.0 0.00 0.00 0.00 71 1013.8
20260902031803 67 217 0.0 0.0 0.00 0.00 0.00 71 1013.7
20260902031256 67 217 0.0 0.0 0.00 0.00 0.00 71 1013.7
20260902030750 67 217 0.0 0.0 0.00 0.00 0.00 70 1013.6
20260902030244 68 217 0.0 0.0 0.00 0.00 0.00 70 1013.8
20260902025739 68 187 0.0 0.0 0.00 0.00 0.00 69 1013.7
20260902025232 68 201 0.0 0.0 0.00 0.00 0.00 69 1013.6
20260902024726 69 167 0.0 0.0 0.00 0.00 0.00 69 1013.6
20260902024220 69 189 0.0 0.0 0.00 0.00 0.00 68 1013.4
20260902023715 70 142 0.0 0.0 0.00 0.00 0.00 67 1013.6
20260902023437 70 192 0.0 0.0 0.00 0.00 0.00 67 1013.4
20260902022922 71 178 0.0 0.0 0.00 0.00 0.00 65 1013.3
20260902022156 71 233 0.0 0.0 0.00 0.00 0.00 64 1013.4
20260902021650 72 225 0.0 0.0 0.00 0.00 0.00 62 1013.3
20260902021414 73 205 0.0 0.0 0.00 0.00 0.00 59 1013.6
20260902020638 73 185 0.0 0.0 0.00 0.00 0.00 56 1013.3
20260902020133 74 218 0.0 0.0 0.00 0.00 0.00 53 1013.4
20260902015626 74 183 0.0 0.0 0.00 0.00 0.00 51 1013.4
20260902015121 74 182 0.0 0.0 0.00 0.00 0.00 48 1013.4
20260902014615 75 167 0.0 0.0 0.00 0.00 0.00 49 1013.3
20260902014109 76 164 0.0 0.0 0.00 0.00 0.00 45 1013.6
20260902013602 77 211 0.0 5.0 0.00 0.00 0.00 41 1013.3
20260902013318 77 225 0.0 5.0 0.00 0.00 0.00 43 1013.3
20260902012551 77 212 0.0 5.0 0.00 0.00 0.00 42 1013.3
20260902012044 78 223 0.0 4.0 0.00 0.00 0.00 42 1013.3
20260902011538 78 230 0.0 0.0 0.00 0.00 0.00 44 1013.3
20260902011300 78 190 0.0 0.0 0.00 0.00 0.00 46 1013.3
20260902010758 78 274 0.0 2.0 0.00 0.00 0.00 47 1013.3
20260902010021 79 107 0.0 2.0 0.00 0.00 0.00 46 1013.3
20260902005732 79 285 0.0 2.0 0.00 0.00 0.00 45 1013.2
20260902005008 79 264 0.0 2.0 0.00 0.00 0.00 45 1013.2
20260902004503 79 329 0.0 0.0 0.00 0.00 0.00 47 1013.4
20260902003956 79 242 0.0 2.0 0.00 0.00 0.00 47 1013.4
20260902003450 79 259 0.0 2.0 0.00 0.00 0.00 46 1013.4
20260902002944 79 275 1.0 8.0 0.00 0.00 0.00 46 1013.3
20260902002444 79 263 1.0 8.0 0.00 0.00 0.00 46 1013.4
20260902002200 79 240 1.0 8.0 0.00 0.00 0.00 45 1013.4
20260902001441 79 220 1.0 9.0 0.00 0.00 0.00 46 1013.6
20260902000939 80 259 1.0 9.0 0.00 0.00 0.00 45 1013.4
20260902000436 80 221 2.0 9.0 0.00 0.00 0.00 42 1013.4
20260901235935 80 260 1.0 9.0 0.00 0.00 0.00 43 1013.7
20260901235431 81 184 0.0 6.0 0.00 0.00 0.00 43 1013.6
20260901234931 82 254 0.0 7.0 0.00 0.00 0.00 40 1013.8
20260901234433 81 221 0.0 7.0 0.00 0.00 0.00 38 1013.7
20260901234148 81 186 0.0 7.0 0.00 0.00 0.00 39 1013.7
20260901233431 82 186 1.0 7.0 0.00 0.00 0.00 38 1013.8
20260901232930 82 189 0.0 9.0 0.00 0.00 0.00 37 1013.8